Regional Weather Roundup
Issued by NWS

Home | Current Version | Previous Version | Text Only | Print | Product List | Glossary Off
Versions: 1 2 3 4 5 6 7 8 9 10 11 12 13 14 15 16 17 18 19 20 21 22 23 24 25 26 27 28 29 30 31 32 33 34 35 36 37 38 39 40 41 42 43 44 45 46 47 48 49 50

000
ASUS43 KMPX 210410
RWRMN
WEATHER ROUNDUP FOR MINNESOTA
NATIONAL WEATHER SERVICE TWIN CITIES/CHANHASSEN MN
1100 PM CDT SAT SEP 20 2014


NOTE: "FAIR" INDICATES FEW OR NO CLOUDS BELOW 12,000 FEET WITH NO
SIGNIFICANT WEATHER AND/OR OBSTRUCTIONS TO VISIBILITY. N/A MEANS
CURRENT SKY AND/OR WEATHER CONDITIONS ARE NOT AVAILABLE.

MNZ060>063-068>070-210500-
   Twin Cities Metro

CITY           SKY/WX    TMP DP  RH WIND       PRES   REMARKS
TWIN CITIES    PTCLDY    57  52  83 W10       29.85S
ST PAUL        CLEAR     57  52  83 W12       29.85S
CRYSTAL        CLEAR     60  50  69 W14       29.84R
BLAINE         CLEAR     57  54  88 W13       29.83S
LAKEVILLE      CLEAR     55  52  88 W12       29.86S
EDEN PRAIRIE   PTCLDY    57  52  83 W9        29.85S
SOUTH ST PAUL  CLEAR     57  52  82 W9        29.85R
LAKE ELMO      FAIR      55  52  88 W10       29.84R
$$
MNZ001>005-007-008-013>017-022>024-027-028-210500-
   Northwest Minnesota

CITY           SKY/WX    TMP DP  RH WIND       PRES   REMARKS
BEMIDJI        PTCLDY    48  47  97 NW7       29.88R
HALLOCK        PTCLDY    52  50  93 NW7       29.94R
ROSEAU         CLOUDY    52  46  82 NW5       29.92R
WARROAD        CLOUDY    48  45  87 NW3       29.91R
THIEF RVR FALL CLOUDY    52  48  87 NW9       29.93R
CROOKSTON      PTCLDY    54  52  94 NW8       29.95R
FOSSTON        CLOUDY    50  48  93 NW8       29.93R
DETROIT LAKES  MOCLDY    54  50  87 NW9       29.93R
MOORHEAD       MOCLDY    55  55 100 NW6       29.95R
PARK RAPIDS    PTCLDY    50  48  93 NW9       29.88R
MAHNOMEN       CLOUDY    53  51  94 NW6       29.92R
$$
MNZ006-009>011-018-025>026-210500-
   North Central Minnesota

CITY           SKY/WX    TMP DP  RH WIND       PRES   REMARKS
BAUDETTE       LGT RAIN  51  48  89 N10       29.88R
FLAG ISLAND    LGT RAIN  52  48  87 N9        29.88R
INTL FALLS     LGT RAIN  52  50  93 N15       29.83R
WASKISH        LGT RAIN  52  48  87 NW5       29.88R
BIG FORK       RAIN      50  48  93 NW6       29.84R
LONGVILLE      PTCLDY    50  46  87 NW3       29.86R
GRAND RAPIDS   CLOUDY    50  45  81 NW16G24   29.82R
CRANE LAKE     RAIN      52  52 100 N6        29.80R
ORR            DRIZZLE   52  48  87 NW8       29.77R
COOK           RAIN      52  52 100 NW6       29.78R
WALKER         CLOUDY    49  47  93 NW5       29.88R
$$
MNZ012-019>021-037-210500-
   Northeast Minnesota

CITY           SKY/WX    TMP DP  RH WIND       PRES   REMARKS
DULUTH         LGT RAIN  54  51  90 NW7       29.72R
ELY            CLOUDY    52  50  93 NW3       29.74R
HIBBING        LGT RAIN  52  49  89 NW22      29.78R
EVELETH        CLOUDY    52  50  93 NW9       29.76R
DULUTH HARBOR  LGT RAIN  55  54  94 W6        29.71S
TWO HARBORS    CLOUDY    54  48  82 CALM      29.69R
SILVER BAY     LGT RAIN  52  52 100 CALM      29.69R
GRAND MARAIS     N/A     55  53  93 NE9       29.72R
G MARAIS ARPRT RAIN      52  48  87 N5        29.73S
$$
MNZ029>031-032-039>041-046>048-054>057-064-210500-
   West Central Minnesota

CITY           SKY/WX    TMP DP  RH WIND       PRES   REMARKS
FERGUS FALLS   PTCLDY    54  46  76 NW5       29.93R
WHEATON        CLEAR     57  46  67 W13       29.95R
MORRIS         CLEAR     55  48  76 W12       29.91R
ALEXANDRIA     MOCLDY    54  50  86 NW9       29.92R
ELBOW LAKE     CLOUDY    57  50  76 NW9       29.93R
WADENA         PTCLDY    54  50  87 W5        29.88S
GLENWOOD       CLEAR     52  48  87 NW6       29.93R
APPLETON       CLEAR     55  48  76 W7        29.93R
BENSON         CLEAR     57  48  72 NW13      29.92R
ORTONVILLE     CLEAR     59  46  63 NW8       29.95R
MADISON        CLEAR     59  48  67 W10       29.95S
WILLMAR        FAIR      55  52  88 N8        29.93R
$$
MNZ033>034-036-042>043-049>051-058-059-210500-
   Central Minnesota

CITY           SKY/WX    TMP DP  RH WIND       PRES   REMARKS
ST CLOUD       PTCLDY    59  49  69 W16       29.86R
SAUK CENTRE    FAIR      51  49  92 W7        29.90R
PAYNESVILLE    PTCLDY    52  49  90 W7G16     29.91R
AITKIN         PTCLDY    54  46  76 NW7       29.82R
PINE RIVER     MOCLDY    52  46  82 NW6       29.90R
BRAINERD       PTCLDY    52  46  80 N15       29.86R
STAPLES        PTCLDY    54  46  76 NW12G20   29.87S
LONG PRAIRIE   MOCLDY    52  50  93 W8        29.89S
LITTLE FALLS   CLEAR     55  46  71 NW7       29.86S
LITCHFIELD     PTCLDY    57  55  94 NW8       29.90F
BUFFALO        PTCLDY    57  51  78 W12G17    29.87R
MAPLE LAKE     CLEAR     58  52  81 W10G18    29.87S
$$
MNZ037-044-045-052-053-210500-
   East Central Minnesota

CITY           SKY/WX    TMP DP  RH WIND       PRES   REMARKS
PRINCETON      CLEAR     57  50  77 W13G18    29.84R
MORA           MOCLDY    55  46  71 NW10      29.82R
CAMBRIDGE      CLEAR     59  46  63 W13G22    29.80R
RUSH CITY      PTCLDY    55  49  80 W7        29.79R
MOOSE LAKE     RAIN      50  46  87 NW20G26   29.74R
HINCKLEY       DRIZZLE   54  50  87 NW16G25   29.79R
CLOQUET        LGT RAIN  54  52  94 NW7       29.73R
MCGREGOR       CLOUDY    50  46  87 NW14G21   29.81R
$$
MNZ071>073-080-081-089-090-097-098-210500-
   Southwest Minnesota

CITY           SKY/WX    TMP DP  RH WIND       PRES   REMARKS
MONTEVIDEO     CLEAR     59  50  72 NW10      29.94R
GRANITE FALLS  CLEAR     52  49  89 W9        29.95R
CANBY          CLEAR     60  47  61 W14       29.98R
MARSHALL       CLEAR     59  45  58 W16       29.95S
REDWOOD FALLS  CLEAR     58  50  75 W17       29.92S
OLIVIA         CLEAR     54  50  87 W10       29.91R
PIPESTONE      CLEAR     57  45  62 NW8       30.02R
WINDOM         CLEAR     57  52  82 W8        29.97S
WORTHINGTON    CLEAR     55  46  71 W8        30.01R
JACKSON        CLEAR     59  50  72 W12       29.98R
TRACY          CLEAR     58  49  71 W5        29.97S
SLAYTON        CLEAR     56  47  71 W9        30.00S
$$
MNZ065>067-074>077-082>085-091>093-210500-
   South Central Minnesota

CITY           SKY/WX    TMP DP  RH WIND       PRES   REMARKS
MANKATO        PTCLDY    55  48  76 SW8       29.91S
NEW ULM        CLEAR     55  55 100 W6        29.92S
ST JAMES       CLEAR     57  54  88 W7        29.95S
FAIRMONT       CLEAR     57  50  77 W10       29.95R
GLENCOE        LGT RAIN  56  52  84 NW6       29.90R
FARIBAULT      PTCLDY    57  54  88 W7        29.89S
OWATONNA       CLEAR     54  52  94 W3        29.90S
WASECA         CLEAR     52  48  87 W6        29.93S
ALBERT LEA     CLEAR     55  55 100 W6        29.92R
$$
MNZ078>079-086>088-094>096-210500-
   Southeast Minnesota

CITY           SKY/WX    TMP DP  RH WIND       PRES   REMARKS
ROCHESTER      CLEAR     56  52  86 NW10      29.89R
RED WING       CLEAR     57  54  88 W7        29.83S
STANTON        CLEAR     57  52  82 W8        29.86S
DODGE CENTER   CLEAR     57  54  88 W10       29.89S
WINONA         PTCLDY    59  52  77 NW13G23   29.83S
AUSTIN         CLEAR     55  54  94 NW8       29.90S
PRESTON        CLEAR     55  55  99 NW12      29.89R
$$
ABBREVIATIONS USED IN REMARKS
   TC - TEMPERATURES IN CELSIUS
  WCI - WIND CHILL INDEX
   HX - HEAT INDEX
  VSB - VISIBILITY
$$


USA.gov is the U.S. government's official web portal to all federal, state and local government web resources and services.